Bristol International Airport

Airport
ICAO code: 
EGGD
IATA Code: 
BRS
Summary
ICAO Region: 
EUR
Territory: 
Location: 
Lulsgate, North Somerset, England
Serving: 
Bristol
Elevation: 
622 ft
Coordinates: 
Aerial View: 
51° 22' 59.616" N, 2° 43' 4.286" W
Airport WX: 
Low Level Turbulence
Metar
Observation
EGGD 020120Z AUTO 19011KT 9999 NCD 12/10 Q1018
Station
Bristol / Lulsgate
Date/Time
2022-07-02 01:20:00
Wind direction
190°
Wind speed
11 kts
Lowest cloud amount
no clouds detected
Temperature
12°C
Dew point
10°C
Humidity
87%
QNH
1018 hPa
Weather condition
n/a

Description

Bristol Airport, located at Lulsgate in North Somerset, is an international airport serving the city of Bristol and the surrounding region. It was officially renamed Bristol International Airport in 1997.

Climatology

Temperate Marine climate/Oceanic climate (Köppen climate classification Cfb). Moderately cool summer and comparatively warm winter with a temperature range of only 14°C. Prevailing south-westerly winds from the Atlantic Ocean.

Runways

Designator Length Width Surface Rops
9/27 2011 46 ASP Yes/Yes
Airport map: 
Aerial View: 

Accidents and Serious Incidents at or in the vicinity of EGGD

SKYbrary Partners:

Safety knowledge contributed by: